NKS1115 KFLL-KTPA

Flight info

Callsign NKS1115
Flight time 0h 37m
Altitude 22000
Route BNICE2 COREA BLFRG3
Aircraft A320/M-SDE3FGHIRWY/LB1

Departure

Time 2026-05-04 00:01
Airport Fort Lauderdale Hollywood International Airport (KFLL)

Arrival

Time 2026-05-04 00:39
Airport Tampa International Airport (KTPA)
Time Latitude Longitude Altitude Speed Heading
2026-05-03 22:22 26.06886 -80.14434 16 ft 0 kts
2026-05-03 22:29 26.06885 -80.14434 16 ft 0 kts
2026-05-03 23:11 26.06884 -80.14434 16 ft 0 kts
2026-05-03 23:16 26.06869 -80.14434 16 ft 3 kts 354°
2026-05-03 23:16 26.06851 -80.14433 17 ft 3 kts 354°
2026-05-03 23:16 26.06833 -80.14428 18 ft 3 kts 323°
2026-05-03 23:17 26.06821 -80.14413 16 ft 3 kts 283°
2026-05-03 23:17 26.06818 -80.14393 17 ft 2 kts 269°
2026-05-03 23:17 26.06818 -80.14385 16 ft 0 kts 269°
2026-05-03 23:19 26.06818 -80.14389 17 ft 2 kts 269°
2026-05-03 23:19 26.06818 -80.14436 16 ft 10 kts 270°
2026-05-03 23:19 26.06818 -80.14515 16 ft 7 kts 270°
2026-05-03 23:19 26.06818 -80.14522 16 ft 0 kts 270°
2026-05-03 23:20 26.06818 -80.14525 16 ft 1 kts 270°
2026-05-03 23:20 26.06818 -80.14527 16 ft 0 kts 270°
2026-05-03 23:21 26.06818 -80.14528 16 ft 0 kts 270°
2026-05-03 23:21 26.06818 -80.14532 16 ft 0 kts 270°
2026-05-03 23:22 26.06819 -80.14554 16 ft 6 kts 271°
2026-05-03 23:22 26.06844 -80.14615 18 ft 12 kts 311°
2026-05-03 23:22 26.06912 -80.14679 16 ft 13 kts 320°
2026-05-03 23:23 26.06952 -80.14754 16 ft 11 kts 249°
2026-05-03 23:23 26.06912 -80.14842 16 ft 14 kts 261°
2026-05-03 23:23 26.06911 -80.14949 16 ft 14 kts 270°
2026-05-03 23:23 26.06912 -80.15060 16 ft 15 kts 270°
2026-05-03 23:24 26.06901 -80.15115 16 ft 6 kts 232°
2026-05-03 23:24 26.06854 -80.15130 16 ft 8 kts 182°
2026-05-03 23:24 26.06797 -80.15130 16 ft 9 kts 180°
2026-05-03 23:24 26.06735 -80.15131 18 ft 7 kts 181°
2026-05-03 23:25 26.06694 -80.15179 21 ft 14 kts 266°
2026-05-03 23:25 26.06696 -80.15299 16 ft 15 kts 270°
2026-05-03 23:25 26.06696 -80.15321 16 ft 0 kts 270°
2026-05-03 23:26 26.06696 -80.15322 16 ft 0 kts 270°
2026-05-03 23:36 26.06696 -80.15329 16 ft 0 kts 270°
2026-05-03 23:36 26.06696 -80.15330 16 ft 0 kts 270°
2026-05-03 23:36 26.06696 -80.15347 16 ft 4 kts 269°
2026-05-03 23:37 26.06696 -80.15359 16 ft 0 kts 269°
2026-05-03 23:39 26.06696 -80.15362 16 ft 1 kts 269°
2026-05-03 23:40 26.06696 -80.15365 16 ft 0 kts 269°
2026-05-03 23:40 26.06696 -80.15366 16 ft 0 kts 269°
2026-05-03 23:41 26.06696 -80.15378 16 ft 0 kts 270°
2026-05-03 23:47 26.06696 -80.15389 16 ft 3 kts 270°
2026-05-03 23:47 26.06695 -80.15426 16 ft 9 kts 269°
2026-05-03 23:47 26.06696 -80.15489 16 ft 0 kts 271°
2026-05-03 23:47 26.06697 -80.15498 16 ft 3 kts 271°
2026-05-03 23:48 26.06697 -80.15545 16 ft 9 kts 270°
2026-05-03 23:48 26.06697 -80.15588 16 ft 0 kts 270°
2026-05-03 23:48 26.06697 -80.15591 16 ft 1 kts 270°
2026-05-03 23:48 26.06697 -80.15606 16 ft 0 kts 272°
2026-05-03 23:51 26.06697 -80.15607 16 ft 0 kts 272°
2026-05-03 23:52 26.06697 -80.15612 16 ft 2 kts 271°
2026-05-03 23:52 26.06697 -80.15647 16 ft 7 kts 269°
2026-05-03 23:52 26.06697 -80.15662 16 ft 0 kts 270°
2026-05-03 23:52 26.06697 -80.15666 16 ft 2 kts 270°
2026-05-03 23:53 26.06698 -80.15697 16 ft 6 kts 270°
2026-05-03 23:53 26.06697 -80.15727 16 ft 0 kts 269°
2026-05-03 23:56 26.06697 -80.15736 16 ft 5 kts 269°
2026-05-03 23:56 26.06697 -80.15767 16 ft 2 kts 270°
2026-05-03 23:56 26.06697 -80.15771 16 ft 0 kts 270°
2026-05-03 23:58 26.06694 -80.15789 16 ft 7 kts 255°
2026-05-03 23:58 26.06682 -80.15810 17 ft 0 kts 224°
2026-05-04 00:00 26.06672 -80.15816 -1 ft 7 kts 207°
2026-05-04 00:00 26.06598 -80.15810 18 ft 12 kts 141°
2026-05-04 00:00 26.06590 -80.15706 21 ft 20 kts 90°
2026-05-04 00:01 26.06589 -80.15250 23 ft 97 kts 90°
2026-05-04 00:01 26.06583 -80.14304 52 ft 143 kts 90°
2026-05-04 00:01 26.06566 -80.13170 529 ft 149 kts 88°
2026-05-04 00:01 26.06622 -80.11977 973 ft 160 kts 77°
2026-05-04 00:02 26.07102 -80.10908 1571 ft 154 kts 56°
2026-05-04 00:02 26.07665 -80.09829 1790 ft 172 kts 60°
2026-05-04 00:02 26.08264 -80.08578 2011 ft 195 kts 61°
2026-05-04 00:02 26.09113 -80.07303 2241 ft 218 kts 37°
2026-05-04 00:03 26.10543 -80.06613 2612 ft 241 kts 11°
2026-05-04 00:03 26.12260 -80.06100 3154 ft 261 kts 17°
2026-05-04 00:03 26.13989 -80.05438 3772 ft 271 kts 14°
2026-05-04 00:03 26.15846 -80.05119 3965 ft 270 kts 358°
2026-05-04 00:04 26.17694 -80.05461 4180 ft 273 kts 339°
2026-05-04 00:04 26.19486 -80.06165 5192 ft 272 kts 337°
2026-05-04 00:04 26.21177 -80.07088 6137 ft 271 kts 321°
2026-05-04 00:04 26.22543 -80.08508 7008 ft 269 kts 304°
2026-05-04 00:05 26.23474 -80.10302 7868 ft 268 kts 289°
2026-05-04 00:05 26.24158 -80.12245 8730 ft 271 kts 289°
2026-05-04 00:05 26.24852 -80.14204 9597 ft 273 kts 289°
2026-05-04 00:05 26.25480 -80.16208 10391 ft 275 kts 281°
2026-05-04 00:06 26.25814 -80.18352 10838 ft 291 kts 277°
2026-05-04 00:06 26.26141 -80.20668 11037 ft 314 kts 277°
2026-05-04 00:06 26.26486 -80.23133 11447 ft 327 kts 277°
2026-05-04 00:06 26.26842 -80.25653 12093 ft 332 kts 277°
2026-05-04 00:07 26.27205 -80.28205 12786 ft 335 kts 277°
2026-05-04 00:07 26.27573 -80.30786 13477 ft 338 kts 277°
2026-05-04 00:07 26.27943 -80.33384 14129 ft 341 kts 277°
2026-05-04 00:07 26.28314 -80.36005 14756 ft 343 kts 277°
2026-05-04 00:08 26.28688 -80.38641 15379 ft 345 kts 277°
2026-05-04 00:08 26.29065 -80.41290 15998 ft 347 kts 276°
2026-05-04 00:08 26.29438 -80.43920 16611 ft 349 kts 276°
2026-05-04 00:08 26.29788 -80.46408 17182 ft 351 kts 276°
2026-05-04 00:09 26.29881 -80.47063 17333 ft 351 kts 276°
2026-05-04 00:09 26.30104 -80.48641 17694 ft 352 kts 276°
2026-05-04 00:09 26.30161 -80.49038 17782 ft 353 kts 276°
2026-05-04 00:10 26.30545 -80.51749 18392 ft 355 kts 276°
2026-05-04 00:10 26.30932 -80.54474 18914 ft 357 kts 276°
2026-05-04 00:10 26.31323 -80.57213 19453 ft 359 kts 276°
2026-05-04 00:10 26.31712 -80.59966 19997 ft 360 kts 275°
2026-05-04 00:11 26.32098 -80.62733 20526 ft 362 kts 275°
2026-05-04 00:11 26.32484 -80.65516 21060 ft 364 kts 275°
2026-05-04 00:11 26.32871 -80.68312 21566 ft 366 kts 275°
2026-05-04 00:11 26.33259 -80.71124 21937 ft 368 kts 275°
2026-05-04 00:12 26.33649 -80.73956 22021 ft 374 kts 275°
2026-05-04 00:12 26.34049 -80.76867 22032 ft 384 kts 275°
2026-05-04 00:12 26.34456 -80.79816 22031 ft 386 kts 275°
2026-05-04 00:12 26.34869 -80.82782 22031 ft 387 kts 275°
2026-05-04 00:13 26.35285 -80.85744 22035 ft 387 kts 275°
2026-05-04 00:13 26.35730 -80.88705 22035 ft 389 kts 278°
2026-05-04 00:13 26.36593 -80.91583 22034 ft 395 kts 289°
2026-05-04 00:13 26.37984 -80.94208 22041 ft 403 kts 301°
2026-05-04 00:14 26.39928 -80.96564 22042 ft 412 kts 310°
2026-05-04 00:14 26.41988 -80.98721 22041 ft 412 kts 310°
2026-05-04 00:14 26.44077 -81.00908 22042 ft 412 kts 310°
2026-05-04 00:14 26.46163 -81.03096 22045 ft 412 kts 310°
2026-05-04 00:15 26.48251 -81.05290 22049 ft 412 kts 310°
2026-05-04 00:15 26.50337 -81.07483 22054 ft 411 kts 310°
2026-05-04 00:15 26.52419 -81.09673 22043 ft 411 kts 309°
2026-05-04 00:15 26.54498 -81.11863 22047 ft 411 kts 309°
2026-05-04 00:16 26.56578 -81.14056 22047 ft 411 kts 309°
2026-05-04 00:16 26.58655 -81.16247 22051 ft 411 kts 309°
2026-05-04 00:16 26.60733 -81.18441 22062 ft 410 kts 309°
2026-05-04 00:16 26.62811 -81.20634 22053 ft 410 kts 309°
2026-05-04 00:17 26.64697 -81.22979 22055 ft 403 kts 302°
2026-05-04 00:17 26.66453 -81.25426 22063 ft 403 kts 302°
2026-05-04 00:17 26.68209 -81.27870 22054 ft 403 kts 302°
2026-05-04 00:17 26.69967 -81.30313 22059 ft 403 kts 302°
2026-05-04 00:18 26.71724 -81.32753 22049 ft 403 kts 302°
2026-05-04 00:18 26.73481 -81.35193 22060 ft 403 kts 302°
2026-05-04 00:18 26.75239 -81.37637 22048 ft 403 kts 302°
2026-05-04 00:18 26.76997 -81.40082 22047 ft 403 kts 302°
2026-05-04 00:19 26.78752 -81.42525 22050 ft 403 kts 302°
2026-05-04 00:19 26.80506 -81.44970 22054 ft 403 kts 302°
2026-05-04 00:19 26.82260 -81.47417 22053 ft 403 kts 302°
2026-05-04 00:19 26.84016 -81.49865 22052 ft 403 kts 302°
2026-05-04 00:20 26.85770 -81.52311 22050 ft 403 kts 302°
2026-05-04 00:20 26.87522 -81.54753 22049 ft 403 kts 302°
2026-05-04 00:20 26.89277 -81.57202 22050 ft 403 kts 301°
2026-05-04 00:20 26.91003 -81.59618 22051 ft 403 kts 301°
2026-05-04 00:21 26.92751 -81.62069 22057 ft 403 kts 301°
2026-05-04 00:21 26.94499 -81.64519 22065 ft 403 kts 301°
2026-05-04 00:21 26.96250 -81.66971 22066 ft 402 kts 301°
2026-05-04 00:21 26.97998 -81.69423 22065 ft 402 kts 301°
2026-05-04 00:22 26.99745 -81.71873 22069 ft 402 kts 301°
2026-05-04 00:22 27.01463 -81.74271 22064 ft 388 kts 301°
2026-05-04 00:22 27.03144 -81.76616 22067 ft 384 kts 301°
2026-05-04 00:22 27.04808 -81.78948 22073 ft 382 kts 301°
2026-05-04 00:23 27.05926 -81.80521 22073 ft 382 kts 301°
2026-05-04 00:23 27.07588 -81.82849 21907 ft 383 kts 303°
2026-05-04 00:23 27.09535 -81.84969 20919 ft 400 kts 315°
2026-05-04 00:23 27.11778 -81.86858 20131 ft 403 kts 316°
2026-05-04 00:24 27.13995 -81.88710 19503 ft 401 kts 316°
2026-05-04 00:24 27.16221 -81.90568 18927 ft 397 kts 316°
2026-05-04 00:24 27.18427 -81.92416 18364 ft 394 kts 316°
2026-05-04 00:24 27.20608 -81.94256 17762 ft 390 kts 317°
2026-05-04 00:25 27.22761 -81.96074 17340 ft 382 kts 316°
2026-05-04 00:25 27.24839 -81.97836 17162 ft 367 kts 316°
2026-05-04 00:25 27.26828 -81.99581 16719 ft 357 kts 311°
2026-05-04 00:25 27.28631 -82.01481 16191 ft 353 kts 310°
2026-05-04 00:26 27.30394 -82.03382 15666 ft 350 kts 310°
2026-05-04 00:26 27.32133 -82.05283 15151 ft 347 kts 310°
2026-05-04 00:26 27.33856 -82.07177 14635 ft 345 kts 310°
2026-05-04 00:26 27.35561 -82.09069 14128 ft 343 kts 310°
2026-05-04 00:27 27.37246 -82.10956 13580 ft 341 kts 310°
2026-05-04 00:27 27.38917 -82.12836 13120 ft 337 kts 310°
2026-05-04 00:27 27.40574 -82.14703 12864 ft 338 kts 310°
2026-05-04 00:27 27.42219 -82.16556 12454 ft 332 kts 310°
2026-05-04 00:28 27.43848 -82.18387 11960 ft 330 kts 310°
2026-05-04 00:28 27.45463 -82.20206 11458 ft 328 kts 311°
2026-05-04 00:28 27.47071 -82.22020 10962 ft 326 kts 311°
2026-05-04 00:28 27.48666 -82.23820 10564 ft 321 kts 311°
2026-05-04 00:29 27.50216 -82.25564 10443 ft 309 kts 311°
2026-05-04 00:29 27.51687 -82.27218 10330 ft 297 kts 311°
2026-05-04 00:29 27.53124 -82.28834 10217 ft 287 kts 311°
2026-05-04 00:29 27.54516 -82.30397 10031 ft 280 kts 311°
2026-05-04 00:30 27.55880 -82.31928 9913 ft 274 kts 311°
2026-05-04 00:30 27.57240 -82.33463 9481 ft 280 kts 311°
2026-05-04 00:30 27.58614 -82.35017 9132 ft 279 kts 312°
2026-05-04 00:30 27.59997 -82.36582 8719 ft 280 kts 312°
2026-05-04 00:31 27.61366 -82.38128 8391 ft 278 kts 313°
2026-05-04 00:31 27.62725 -82.39663 7905 ft 274 kts 313°
2026-05-04 00:31 27.64061 -82.41175 7345 ft 271 kts 314°
2026-05-04 00:31 27.65389 -82.42678 6773 ft 270 kts 314°
2026-05-04 00:32 27.66712 -82.44181 6190 ft 269 kts 315°
2026-05-04 00:32 27.68028 -82.45681 5582 ft 268 kts 315°
2026-05-04 00:32 27.69341 -82.47172 5010 ft 267 kts 316°
2026-05-04 00:32 27.70585 -82.48578 4442 ft 266 kts 316°
2026-05-04 00:33 27.71898 -82.50059 3847 ft 266 kts 317°
2026-05-04 00:33 27.74612 -82.52797 3014 ft 249 kts 334°
2026-05-04 00:33 27.76151 -82.53431 2979 ft 223 kts 352°
2026-05-04 00:34 27.77609 -82.53533 2998 ft 200 kts
2026-05-04 00:34 27.78967 -82.53488 2980 ft 191 kts
2026-05-04 00:34 27.80240 -82.53447 2915 ft 187 kts
2026-05-04 00:34 27.81538 -82.53407 2832 ft 186 kts
2026-05-04 00:35 27.82829 -82.53364 2741 ft 186 kts
2026-05-04 00:35 27.84094 -82.53319 2659 ft 178 kts
2026-05-04 00:35 27.85324 -82.53278 2577 ft 177 kts
2026-05-04 00:35 27.86539 -82.53239 2290 ft 171 kts
2026-05-04 00:36 27.87699 -82.53201 2019 ft 162 kts
2026-05-04 00:36 27.88796 -82.53162 1771 ft 152 kts
2026-05-04 00:36 27.89809 -82.53129 1538 ft 144 kts
2026-05-04 00:36 27.90783 -82.53096 1342 ft 139 kts
2026-05-04 00:37 27.91744 -82.53064 1122 ft 138 kts
2026-05-04 00:37 27.92697 -82.53030 917 ft 136 kts
2026-05-04 00:37 27.93657 -82.52997 680 ft 139 kts
2026-05-04 00:37 27.94617 -82.52957 482 ft 135 kts
2026-05-04 00:38 27.95531 -82.52938 293 ft 130 kts
2026-05-04 00:38 27.96448 -82.52899 86 ft 131 kts
2026-05-04 00:38 27.97268 -82.52870 38 ft 88 kts
2026-05-04 00:38 27.97678 -82.52858 39 ft 50 kts
2026-05-04 00:39 27.97998 -82.52848 38 ft 34 kts
2026-05-04 00:39 27.98084 -82.52919 40 ft 16 kts 270°
2026-05-04 00:39 27.98116 -82.52995 42 ft 9 kts 310°
2026-05-04 00:39 27.98154 -82.53073 43 ft 12 kts 299°
2026-05-04 00:40 27.98184 -82.53123 43 ft 0 kts 307°
2026-05-04 00:40 27.98186 -82.53125 43 ft 0 kts 306°